Wind_Speed
43 44 45 45 45 46 46 46 46 46 46 46 47 46 46 45 45 45 45 45 46 47 48 48 48 47 47 47 47 47 48 48 49 50 50 50 51 51 52 53 55 56 56 57 57 57 59 61 62 62 63 65 66 66 64 62 62 59 55 53 52 52 54 54 51 47 49 55 59 62 63 59 56 57 56 53 51 50 44 40 42 44 42 40 39
44 44 44 45 45 45 46 45 45 45 46 46 47 46 46 46 45 45 45 46 46 47 48 49 49 49 48 47 47 48 48 48 49 49 50 50 50 50 51 52 53 54 55 56 56 57 58 59 61 61 62 63 64 66 66 65 64 62 59 58 57 54 53 52 50 46 44 47 52 56 61 60 57 58 59 56 55 52 46 43 46 46 43 41 40
43 44 44 44 44 44 44 45 45 45 46 46 46 47 47 47 46 46 47 46 47 47 48 49 50 50 49 49 48 48 49 49 49 49 50 50 50 50 51 51 51 52 54 55 55 56 57 58 60 61 61 62 63 64 66 67 67 65 61 60 60 58 55 54 52 48 43 43 46 49 52 55 57 59 59 58 57 55 50 47 49 47 43 42 41
42 42 43 43 43 43 44 44 45 46 46 47 47 47 48 48 48 49 48 48 48 48 49 50 50 51 51 50 50 50 49 50 50 50 50 50 51 51 51 51 52 52 52 53 54 55 56 56 58 60 61 61 62 63 65 67 68 67 65 63 61 59 58 57 57 55 51 48 47 45 46 50 54 57 59 59 59 56 52 51 51 48 44 43 42
39 40 40 41 41 42 43 44 45 45 46 47 47 48 48 49 50 50 50 50 50 50 50 51 51 52 52 52 52 51 51 51 51 51 52 52 51 52 52 52 53 52 52 53 53 54 55 56 56 57 60 61 61 62 64 66 67 67 67 67 64 62 60 59 59 60 60 57 52 48 48 48 48 51 55 57 57 56 54 52 50 47 45 43 42
37 39 39 40 41 42 43 43 44 45 45 46 47 48 49 49 50 50 51 51 51 52 52 52 53 53 54 54 53 53 53 53 53 53 53 54 53 53 53 53 53 54 53 53 53 54 55 56 56 56 58 60 61 62 63 65 65 66 67 67 67 65 63 61 61 62 63 61 56 54 54 50 47 48 52 56 57 55 55 53 51 48 46 43 42
36 37 38 39 41 42 42 43 44 44 45 46 47 47 48 48 49 50 50 51 52 52 53 53 54 54 54 54 55 55 55 55 54 55 55 55 55 55 55 55 54 54 55 55 55 55 55 56 57 56 56 58 60 61 62 64 64 64 65 66 66 65 64 63 63 62 62 60 57 58 60 57 51 48 49 53 55 55 55 54 52 48 44 41 41
34 35 37 39 40 42 42 43 44 45 45 46 46 47 47 48 48 49 50 50 51 52 53 53 54 54 54 54 55 56 56 56 56 56 55 56 56 56 56 56 56 56 56 56 56 56 56 57 57 57 56 56 58 60 62 63 63 63 64 64 63 64 64 65 65 64 63 59 57 59 62 61 55 50 49 50 51 52 53 52 50 46 43 42 42
35 36 38 39 41 42 43 44 45 45 46 46 47 48 48 48 49 49 50 50 51 52 52 52 53 54 54 54 55 55 56 56 56 56 56 56 57 57 57 57 57 57 57 57 57 57 58 58 58 58 57 56 57 59 61 63 63 62 63 63 62 62 61 62 64 65 64 60 58 60 63 61 56 51 51 50 48 50 50 49 49 48 46 45 44
37 38 40 40 41 43 44 44 45 45 46 47 47 48 49 49 49 50 50 51 51 52 52 52 52 53 53 54 55 55 56 56 56 56 57 57 58 58 59 59 58 59 59 59 59 59 59 59 59 60 59 57 57 58 60 63 63 62 61 61 61 61 60 61 62 63 63 62 62 64 64 62 56 51 51 50 47 47 48 48 50 51 48 46 45
38 39 40 40 41 42 43 43 44 45 46 47 47 48 49 49 50 50 51 51 51 52 52 52 52 53 53 54 54 55 55 55 55 56 56 57 58 59 59 60 60 60 60 60 60 60 60 61 61 61 61 59 58 57 59 61 63 62 61 60 60 59 59 61 62 59 58 60 65 67 65 61 56 52 53 52 49 46 47 49 52 51 48 46 45
38 39 39 40 40 41 42 43 44 46 46 47 48 49 49 49 49 50 50 50 51 51 52 52 52 53 54 54 54 54 55 55 55 56 56 57 58 60 60 61 61 61 61 61 61 61 61 62 62 62 62 60 59 58 58 59 62 63 61 60 60 60 59 61 61 59 56 58 64 67 65 60 54 52 53 53 52 51 51 52 53 51 47 45 44
38 38 39 40 40 41 42 44 45 46 47 48 49 49 50 50 50 50 50 50 51 51 51 52 53 53 54 55 55 55 55 55 55 56 57 58 59 60 61 61 62 62 62 63 63 62 62 63 63 63 62 61 60 59 57 58 60 62 63 62 61 61 62 62 60 58 58 59 61 64 65 60 53 50 50 52 53 54 54 54 54 51 48 45 43
37 38 39 40 40 41 42 44 45 46 47 48 48 49 50 50 50 50 50 51 51 51 52 52 52 53 54 55 55 55 56 56 57 57 57 58 59 61 62 62 63 62 62 63 63 63 63 63 63 63 62 62 60 59 58 57 58 61 63 63 62 62 62 62 62 60 58 58 59 62 65 62 54 49 49 51 53 54 54 53 52 50 47 44 42
37 38 38 39 40 42 43 45 46 47 48 48 49 49 50 50 50 50 50 51 51 51 52 52 52 53 53 54 55 55 56 57 58 58 59 59 60 62 63 63 63 63 63 62 62 63 63 63 63 63 62 62 60 58 58 57 57 59 62 63 63 63 63 62 63 63 60 57 56 59 62 61 56 53 53 55 56 55 53 51 49 47 45 44 42
38 37 37 39 41 43 45 47 48 48 48 49 49 49 49 49 49 49 50 50 50 50 51 52 52 53 53 54 54 54 55 57 58 59 59 60 61 62 63 64 65 64 63 62 61 62 62 62 62 62 62 61 59 58 57 57 58 59 61 63 64 65 64 63 63 64 63 60 57 58 60 59 56 55 57 59 60 58 54 50 47 45 44 45 44
37 37 38 41 43 45 46 47 47 48 48 49 48 48 48 47 46 47 47 48 48 49 50 51 52 53 53 54 54 55 55 56 58 59 60 61 62 63 64 65 65 64 63 61 60 61 61 61 62 62 62 60 58 57 57 57 57 58 60 62 64 66 66 65 64 64 63 62 60 60 60 59 57 56 57 59 61 60 56 51 47 44 45 46 46
36 38 40 42 44 45 45 45 45 46 46 46 45 45 44 43 43 44 45 46 47 48 50 51 51 52 53 54 55 56 56 56 58 59 60 61 62 63 64 65 65 64 63 61 59 59 60 60 61 62 61 58 57 57 56 55 56 57 59 60 63 65 66 65 64 63 62 62 62 61 60 60 58 57 57 58 59 59 58 53 48 47 48 48 47
36 39 41 43 43 44 44 43 44 44 44 42 41 40 40 41 42 44 46 47 48 49 50 51 51 52 53 53 54 54 54 54 54 55 57 59 60 61 63 64 63 62 61 60 58 58 58 59 60 61 59 57 57 56 55 54 55 56 57 58 61 64 65 64 64 64 62 61 62 63 62 61 60 60 59 57 58 59 58 53 50 49 50 49 47
37 40 41 42 43 43 43 43 43 42 40 39 38 38 40 42 44 45 46 46 47 48 48 49 50 50 50 50 51 52 52 50 50 51 52 54 55 58 61 61 60 59 59 58 56 55 57 58 58 59 58 56 56 56 54 53 54 55 56 56 59 62 64 64 65 64 63 62 63 65 65 64 63 64 62 59 58 58 56 53 52 51 51 48 46
38 40 40 41 42 42 42 42 40 39 38 37 37 39 41 43 43 43 43 43 43 44 45 46 47 46 47 49 51 52 51 49 48 47 48 49 51 54 57 58 57 56 54 53 52 53 55 56 57 58 57 55 55 55 54 53 55 55 54 53 56 60 63 65 66 65 64 64 65 66 67 67 66 65 62 60 59 58 55 54 54 52 50 46 43
37 39 39 40 40 40 40 39 37 36 36 36 38 41 42 42 40 39 40 40 41 43 44 45 45 46 47 50 50 50 49 47 45 44 45 45 46 48 51 53 53 51 50 49 50 51 53 55 56 56 56 55 55 55 54 55 56 55 53 52 54 57 61 64 67 67 66 65 65 65 67 68 67 64 61 60 59 56 55 55 54 52 50 45 41
36 37 38 38 38 38 37 36 35 34 35 37 40 41 40 39 37 37 38 40 41 42 44 45 47 47 47 45 44 42 41 40 41 42 43 43 42 43 45 48 50 49 47 47 48 50 52 54 55 55 55 54 55 55 55 56 56 54 53 52 52 53 56 61 66 68 67 66 65 64 65 67 67 64 62 59 56 53 52 53 52 51 48 44 42
35 36 36 36 36 35 34 34 33 34 36 38 40 39 37 36 36 37 38 39 41 42 44 46 46 44 39 36 34 34 33 32 34 37 39 40 40 40 41 44 46 46 47 48 48 50 51 53 54 55 54 55 56 56 56 57 56 54 53 52 50 49 51 58 64 67 67 66 65 63 63 65 66 65 64 60 54 51 51 51 50 49 46 43 44
34 34 35 34 33 33 32 32 32 34 37 38 38 36 35 34 35 37 38 39 40 42 44 44 39 33 28 26 27 28 29 29 30 32 34 36 37 38 39 40 41 42 43 45 46 48 50 53 54 55 56 57 57 57 58 58 56 53 51 50 49 48 49 55 62 66 66 65 64 63 63 63 64 63 63 61 57 54 53 53 53 51 47 44 46
33 33 33 32 31 31 31 31 32 35 37 37 36 34 33 34 35 37 38 39 40 42 42 36 28 23 22 23 25 27 28 28 28 28 30 32 34 36 37 38 38 38 38 40 42 44 47 50 53 55 56 57 58 58 58 57 54 52 50 50 49 48 48 51 57 63 65 64 64 63 61 61 62 61 61 61 60 57 54 54 55 52 47 45 49
32 31 31 30 29 29 29 30 32 35 35 35 34 32 32 33 34 36 37 38 39 40 37 29 22 22 23 24 26 27 28 28 28 28 28 30 31 33 35 37 37 37 37 37 39 41 43 46 50 52 54 56 57 57 57 55 53 52 51 51 50 48 47 48 53 58 62 63 63 62 60 60 61 61 61 60 60 58 56 55 55 52 48 48 52
30 30 29 28 28 27 27 29 32 34 34 33 32 31 32 33 33 35 37 38 39 37 31 25 23 24 25 25 25 26 27 28 28 27 27 28 30 31 33 36 37 37 37 37 37 38 39 41 45 49 52 54 55 56 55 55 53 53 53 52 49 47 46 47 50 56 62 63 62 60 59 59 60 62 63 61 59 58 57 56 54 52 49 50 53
28 28 27 26 25 25 27 30 32 33 32 31 30 31 32 33 33 34 35 37 38 34 28 24 25 26 26 25 24 24 25 25 26 26 26 25 26 29 31 34 36 37 38 38 38 37 37 37 40 44 47 50 52 53 53 53 53 52 51 49 47 45 44 44 47 52 58 61 60 59 59 58 59 62 62 60 59 59 57 55 53 51 49 51 53
26 25 25 23 23 25 27 30 32 32 31 29 29 30 31 32 32 32 33 35 36 32 26 24 26 26 24 23 22 23 23 24 25 25 24 22 23 25 28 32 35 38 39 40 39 38 36 36 38 40 43 46 48 49 49 50 49 48 47 45 44 43 42 42 43 47 53 56 57 58 57 56 57 60 60 60 60 57 52 50 51 49 50 52 53
23 22 22 22 23 25 27 29 30 31 29 28 27 28 29 30 31 32 33 33 32 29 25 24 25 23 19 18 21 23 24 23 22 21 21 21 20 22 25 29 32 36 40 41 41 39 37 37 39 41 43 44 45 46 46 46 45 44 44 45 44 43 42 42 42 44 49 53 56 58 57 54 55 58 59 60 60 55 48 46 46 46 49 52 52
20 20 20 21 23 25 27 27 28 29 28 26 25 25 26 27 29 31 32 32 30 26 23 22 22 19 17 18 22 23 21 19 17 16 18 19 20 21 25 28 31 35 39 41 41 40 39 39 40 42 43 44 44 44 44 45 44 44 45 45 45 44 43 42 42 43 46 51 55 57 57 55 57 59 57 55 56 54 51 49 46 46 50 53 52
17 18 19 21 22 24 25 26 26 27 26 25 24 23 23 25 26 28 29 31 31 26 22 20 20 19 17 20 22 20 16 13 12 13 14 16 18 22 26 29 31 33 36 38 39 40 41 41 42 43 44 43 43 44 44 45 45 45 46 46 46 45 44 43 42 42 45 50 55 57 56 56 57 58 55 51 51 52 53 52 50 50 53 54 51
16 17 18 20 22 23 23 24 25 25 24 23 22 22 22 23 24 25 25 27 29 26 22 21 20 19 19 20 19 15 11 9 9 10 10 11 14 20 25 29 30 31 33 36 37 39 42 43 43 44 44 44 44 45 45 46 46 46 46 46 46 45 44 43 41 41 45 50 53 54 55 54 53 51 50 50 51 52 52 52 52 52 52 50 48
15 16 17 19 21 21 22 22 23 23 23 23 21 20 20 21 23 24 24 24 25 23 20 19 18 18 18 18 16 14 11 9 9 9 9 7 10 19 26 29 30 30 32 35 36 38 41 42 43 43 44 44 45 45 45 46 46 45 45 44 43 43 43 42 41 42 45 48 49 49 50 51 49 46 46 49 52 53 53 53 53 53 51 47 44
13 14 15 17 19 21 21 21 22 23 23 23 21 19 19 20 21 22 22 23 24 21 17 17 16 14 14 14 14 13 10 9 9 10 9 7 7 17 25 28 29 30 32 33 34 34 36 36 37 38 39 40 41 41 41 41 41 40 39 39 39 40 40 40 41 43 45 46 48 49 50 48 46 45 46 50 53 55 54 51 50 49 47 42 37
12 13 13 14 17 20 20 21 21 22 23 23 21 20 18 18 20 21 20 20 22 20 16 14 13 12 12 13 12 9 6 9 11 11 10 9 9 13 20 24 26 28 28 28 27 27 28 30 31 32 34 35 35 35 35 34 34 35 36 36 37 38 38 39 41 45 48 50 51 52 49 45 43 44 47 51 54 55 52 48 45 44 41 37 34
12 13 12 13 15 18 20 20 20 21 22 22 21 20 19 18 19 20 19 18 20 20 17 11 10 10 11 11 8 6 2 6 6 5 7 10 12 13 16 19 21 22 22 22 22 23 25 27 28 28 30 30 31 31 31 31 33 34 35 37 40 40 40 40 42 46 49 51 51 49 45 42 42 43 45 51 55 54 49 46 43 40 36 33 32
12 12 12 12 14 17 19 20 20 21 21 22 21 20 19 18 18 18 18 16 17 19 17 11 7 10 11 11 8 5 1 3 3 1 3 9 12 14 16 18 20 20 21 22 23 24 25 25 25 26 28 29 29 30 31 32 32 32 32 35 39 41 41 42 44 45 46 47 48 46 43 43 44 43 45 51 57 53 45 41 39 36 33 32 31
12 12 12 12 13 15 18 19 20 20 21 21 21 20 19 17 17 17 17 16 15 17 17 13 8 7 9 11 11 7 4 4 3 3 5 9 12 14 16 18 19 20 22 24 24 25 25 25 25 26 27 28 30 32 32 31 31 30 29 30 32 34 36 37 39 41 42 43 44 43 42 43 45 44 46 53 56 51 43 40 38 35 33 32 30
14 14 14 13 12 14 16 18 19 20 20 21 21 21 19 18 16 16 16 15 14 15 16 14 9 5 5 7 8 9 8 6 6 8 9 11 14 15 16 17 20 22 24 25 26 25 25 26 27 27 26 28 32 34 32 31 32 32 32 32 33 34 33 34 36 38 39 39 39 40 41 43 44 44 46 50 52 48 44 43 40 36 34 32 30
14 14 14 13 13 13 14 16 18 19 20 21 21 21 20 18 17 16 16 15 14 14 14 14 11 5 2 2 6 10 10 8 9 11 12 13 16 18 19 20 21 23 24 25 26 26 25 26 28 28 26 27 32 35 34 32 32 35 37 39 40 40 38 38 39 40 39 38 38 38 39 40 42 42 44 47 48 46 43 41 38 35 33 31 29
14 14 13 13 13 13 13 15 17 18 19 20 20 21 21 19 18 17 15 15 14 12 12 13 11 7 4 3 8 12 12 10 9 10 12 14 16 19 20 21 21 22 24 24 26 28 29 28 29 29 27 27 30 35 34 31 31 34 38 40 42 40 38 39 42 42 42 41 40 38 38 40 42 43 44 45 44 41 38 36 35 33 32 30 27
12 12 12 12 12 12 13 13 15 17 18 19 20 20 20 20 19 17 16 15 14 13 11 12 11 9 6 6 9 12 13 14 13 11 12 14 16 17 18 20 22 25 22 19 20 24 27 26 27 29 29 28 29 32 33 30 30 33 36 39 40 38 36 38 42 45 45 44 42 39 39 40 41 41 39 38 36 34 33 33 33 32 30 28 27
10 11 11 11 12 12 12 13 14 15 16 18 18 19 19 19 19 18 17 15 14 13 11 10 11 11 8 6 8 10 11 13 16 16 15 15 17 17 16 17 22 25 21 17 18 20 22 23 26 29 30 28 28 31 32 31 30 31 34 36 36 34 33 37 42 44 44 42 39 36 35 34 33 32 31 30 30 30 31 33 33 31 30 28 27
9 10 10 10 10 11 12 12 13 14 14 15 16 17 17 18 19 19 18 16 15 13 11 9 9 10 10 8 8 9 10 12 16 19 18 17 18 20 19 18 20 21 19 18 18 18 19 21 24 28 30 28 27 29 31 31 30 30 30 31 31 31 33 38 41 40 39 36 32 29 27 26 25 26 27 27 28 28 29 31 32 31 30 29 28
8 9 9 8 9 10 10 10 11 12 13 13 15 16 16 17 18 18 18 17 16 14 12 10 8 8 9 10 9 8 10 12 15 17 18 18 19 20 21 21 21 20 17 15 14 15 18 20 21 24 29 30 28 28 29 29 28 28 27 27 29 32 34 36 36 35 33 28 24 23 23 22 22 24 25 26 27 27 27 27 28 29 29 29 29
8 8 8 8 8 8 9 9 9 10 10 11 13 14 15 16 17 17 17 17 17 16 13 10 8 6 6 9 10 9 9 11 14 16 17 18 19 19 20 21 20 18 17 16 14 15 19 22 21 22 25 28 29 30 29 27 28 30 30 30 33 35 35 35 34 32 27 22 19 20 21 20 21 23 24 25 26 26 26 26 27 27 28 28 29
8 7 7 7 7 7 8 8 8 8 9 9 10 11 13 14 15 15 16 16 17 17 15 13 10 7 5 5 8 10 10 10 12 14 16 17 18 18 18 18 18 17 17 18 17 17 20 23 24 23 22 24 28 30 28 26 29 32 33 34 35 35 34 34 33 30 24 21 19 20 20 20 21 22 23 24 25 25 25 26 26 27 28 29 30
8 8 7 7 7 7 8 8 8 8 8 8 9 9 11 12 13 13 14 15 16 16 17 15 13 9 6 4 4 7 9 10 11 12 14 16 17 18 18 18 18 18 18 18 18 18 20 23 25 25 24 26 28 29 28 28 31 33 34 34 34 32 32 33 32 29 24 22 22 22 22 22 22 22 23 23 24 24 24 25 26 27 28 29 31
9 9 9 8 8 8 7 8 8 8 8 9 9 9 10 11 11 12 13 14 14 15 16 16 15 13 10 6 4 3 5 8 10 11 12 14 16 17 18 19 19 20 20 20 20 20 19 21 23 25 26 27 28 29 28 29 31 33 33 33 33 33 33 32 30 27 25 24 24 23 22 22 22 22 23 23 23 23 24 25 26 27 29 31 32
Wind_Direction
278 279 280 280 281 281 281 280 279 278 277 276 275 275 274 273 272 271 270 270 269 270 270 270 269 267 266 264 263 261 259 258 257 255 253 251 249 247 246 247 248 248 247 246 246 244 242 242 244 245 246 245 245 245 244 245 248 248 247 246 243 239 238 238 241 245 246 249 247 244 243 243 244 245 246 248 251 253 255 256 257 258 260 262 264
278 279 279 279 279 278 278 277 277 276 275 274 274 273 273 272 272 271 270 269 268 268 269 269 269 268 267 265 264 262 260 258 257 256 254 252 251 249 247 247 247 248 248 247 247 246 244 242 242 243 244 244 244 245 244 243 244 246 248 249 248 245 240 238 242 246 246 250 250 247 244 242 242 246 247 248 250 253 253 254 256 257 259 261 263
278 278 278 277 277 276 276 275 274 274 274 273 273 273 272 272 272 271 270 269 268 268 268 268 268 268 267 266 264 263 262 260 258 256 255 253 252 251 250 248 247 246 247 247 247 247 246 244 242 242 243 242 242 243 243 243 242 242 243 247 249 249 245 239 239 240 241 246 251 252 250 245 242 245 248 248 250 252 252 252 254 256 258 260 261
277 277 277 277 277 276 275 274 274 274 274 273 273 273 273 273 272 272 271 270 269 268 268 268 268 268 267 266 264 263 262 261 260 258 256 255 253 252 251 250 249 247 246 246 246 246 246 246 244 243 242 242 241 241 242 243 242 242 241 243 245 248 249 245 241 240 240 245 251 256 255 249 243 243 246 248 250 250 250 251 252 254 255 257 260
277 276 276 277 276 276 275 275 274 274 274 274 274 274 274 273 273 273 272 272 271 269 268 267 267 267 267 266 264 263 262 261 260 260 259 257 255 253 252 251 250 249 247 246 245 245 245 245 245 244 243 242 241 240 241 241 242 242 241 241 242 244 246 247 246 246 246 247 253 257 256 252 247 246 246 248 251 251 250 250 251 252 253 255 258
277 277 277 277 276 276 276 275 275 274 274 274 274 274 274 273 273 273 273 272 271 270 269 268 267 266 266 266 265 263 262 261 260 259 259 258 257 255 254 252 251 250 249 247 246 245 245 245 244 244 244 243 242 240 240 240 241 242 242 242 241 242 244 246 247 249 250 250 252 254 254 252 251 252 252 251 251 251 250 249 250 250 250 252 255
279 279 279 279 278 277 277 276 276 275 275 274 274 274 274 273 273 273 272 272 271 270 269 268 267 266 265 265 265 264 262 261 260 259 259 258 258 257 255 254 252 251 250 249 247 246 246 246 245 244 243 243 243 242 241 240 240 241 242 242 242 242 243 245 246 247 249 252 251 251 252 253 253 255 257 255 252 252 251 250 250 249 249 250 252
281 282 282 282 280 279 279 278 277 277 277 276 276 275 274 274 273 273 272 271 271 270 269 268 268 267 266 265 264 264 263 262 260 259 259 258 258 257 256 255 254 252 251 250 248 246 245 246 246 245 242 241 242 243 242 241 239 239 240 241 242 241 241 243 245 245 246 250 251 250 251 253 252 253 258 260 259 257 255 253 251 250 248 248 251
284 284 284 283 281 280 280 279 279 279 279 278 278 277 276 275 275 274 273 272 271 271 270 269 268 267 267 266 265 264 263 262 262 260 259 258 257 257 256 256 254 253 252 251 250 248 246 246 246 246 244 242 241 242 242 242 240 239 239 240 241 241 240 241 244 244 244 245 247 249 249 249 250 251 256 262 261 255 253 253 253 251 248 248 251
285 285 285 283 282 282 281 281 281 281 280 280 279 279 278 277 277 276 275 274 273 272 271 270 270 269 268 267 266 265 264 263 263 262 261 259 258 257 256 255 255 254 253 251 250 249 247 246 245 246 246 243 241 240 241 241 240 239 238 239 240 240 239 240 242 243 242 241 243 245 247 248 250 251 254 259 259 254 251 253 254 253 250 249 252
285 286 285 285 284 283 283 283 283 282 282 281 281 280 279 279 278 277 276 275 274 273 272 272 271 270 269 268 267 266 265 264 263 263 262 260 259 258 256 255 254 254 253 252 250 249 247 246 245 245 245 244 243 241 240 240 240 239 238 237 239 239 238 239 242 242 240 238 240 243 245 247 249 250 251 255 257 257 255 255 256 255 252 251 252
286 286 286 286 285 285 285 284 284 283 283 283 283 282 282 281 280 279 278 276 275 274 273 273 272 271 269 268 267 266 265 265 264 263 262 261 261 259 258 256 254 253 253 252 250 248 246 245 244 244 245 244 244 243 241 240 239 238 237 236 236 237 236 237 240 241 239 238 239 241 243 245 246 249 251 253 255 256 257 258 258 256 252 251 252
286 287 286 286 285 285 285 285 285 285 285 285 285 284 284 283 282 280 279 277 276 275 274 273 272 271 270 269 268 267 266 265 264 264 263 262 261 260 259 257 255 253 252 251 251 248 245 244 243 242 244 244 244 244 243 241 239 237 236 235 234 234 234 234 237 239 239 239 239 240 242 243 245 248 250 251 252 253 255 259 259 255 252 252 251
286 286 285 285 284 285 285 285 286 286 287 287 287 286 284 283 282 281 279 278 276 275 274 273 273 272 271 270 268 267 266 265 264 263 262 262 261 260 259 258 256 255 252 250 250 248 245 243 241 241 242 243 243 244 244 242 239 236 235 234 233 233 233 232 233 235 236 236 237 239 241 243 244 246 248 250 251 251 253 257 258 254 252 252 252
285 284 283 283 284 284 285 286 287 288 288 288 287 286 285 283 282 280 279 278 276 275 274 273 273 272 271 270 269 268 267 266 264 263 262 261 260 259 258 258 257 255 253 250 249 248 245 242 240 239 240 242 242 243 244 243 241 237 234 232 232 233 232 232 232 233 232 232 234 238 240 241 240 241 244 248 249 250 253 256 255 253 252 253 253
282 281 281 282 284 285 286 288 288 288 288 288 287 287 286 285 283 281 280 279 278 276 275 274 273 272 271 271 270 269 268 266 264 263 261 260 259 258 257 257 256 255 253 250 247 246 244 241 239 238 238 240 241 242 244 244 242 238 233 231 231 232 231 230 232 232 231 230 232 236 238 238 238 239 242 246 249 251 253 254 253 253 254 255 255
280 280 282 283 285 287 288 288 289 289 289 288 288 287 286 285 284 282 281 281 279 278 277 275 274 273 273 273 272 270 268 266 264 263 261 259 258 256 255 254 254 253 252 249 247 245 242 239 238 237 236 237 239 240 243 244 243 240 234 230 229 230 230 229 230 231 231 229 229 232 235 237 237 239 242 245 248 251 252 250 251 254 255 255 256
280 282 284 285 287 288 288 289 290 290 290 289 288 287 287 286 285 284 283 282 281 280 278 277 276 275 274 273 272 271 269 267 265 263 260 258 256 255 254 252 251 251 250 248 246 243 240 237 236 236 235 235 236 239 241 244 244 241 235 231 228 229 229 229 229 230 231 230 229 229 232 235 236 237 239 242 245 250 251 248 249 253 254 255 255
281 283 285 287 288 288 289 290 291 291 291 290 289 288 287 287 286 286 285 283 282 280 279 278 276 276 275 274 273 272 270 268 266 263 261 258 256 253 252 251 250 248 248 247 246 242 237 235 234 234 233 232 234 238 240 243 244 242 237 233 229 227 227 228 229 229 230 230 229 228 230 233 234 234 237 241 246 250 250 247 247 251 254 255 255
282 283 285 287 288 288 289 290 292 292 291 290 289 289 289 289 288 287 286 284 283 282 280 279 278 277 276 275 274 273 271 269 266 264 261 258 255 252 250 249 248 247 246 246 243 239 235 233 232 232 231 231 233 236 239 242 242 241 239 235 231 227 225 226 228 228 228 229 228 227 228 229 230 233 237 240 245 248 247 245 247 251 253 254 252
281 283 286 288 288 288 289 290 291 291 290 289 290 291 291 291 290 289 288 286 285 285 284 282 281 279 278 276 275 274 272 270 267 265 261 258 256 253 250 248 247 246 244 242 239 235 233 232 231 230 229 229 231 235 238 240 240 240 239 237 233 227 223 224 226 226 226 227 227 227 227 228 230 232 235 238 243 245 243 243 246 249 250 250 249
281 284 286 287 288 288 289 289 290 289 289 290 292 294 294 294 293 292 291 289 288 287 286 284 283 281 280 279 277 275 274 272 270 267 263 259 256 254 251 248 245 242 239 237 234 232 230 230 229 229 228 228 230 233 236 237 237 236 236 236 233 227 223 223 225 225 224 225 227 227 228 229 230 232 233 236 240 241 240 241 243 245 247 245 245
282 284 286 287 287 288 288 288 288 288 289 293 295 297 297 296 295 295 294 293 292 290 289 288 287 286 284 281 278 276 274 273 270 267 263 259 255 252 249 246 243 239 234 232 230 229 228 228 228 228 228 228 230 232 234 234 232 231 232 234 233 228 225 224 224 224 224 224 225 227 228 228 228 229 231 234 237 239 242 244 244 243 242 241 243
283 284 286 287 287 288 288 289 288 289 293 296 298 298 298 297 297 298 299 298 296 294 293 292 291 289 285 280 277 275 274 271 268 265 262 258 253 249 246 244 243 238 233 229 227 226 226 226 227 227 227 227 229 230 230 230 228 227 229 232 232 229 227 225 223 224 224 224 225 226 227 228 227 226 228 232 236 239 243 246 246 243 238 237 243
282 285 287 288 288 289 289 289 290 293 297 300 300 299 298 298 299 301 302 301 300 299 298 296 292 287 281 277 276 276 274 272 268 266 263 260 253 246 242 242 242 239 234 231 228 226 225 225 226 226 226 226 227 227 226 225 225 225 227 230 231 230 228 226 224 223 223 224 224 225 227 228 227 226 228 232 236 240 242 246 248 243 235 236 244
283 286 289 290 291 291 290 291 294 298 301 302 301 300 300 300 302 304 304 303 303 302 301 297 290 281 278 279 279 278 278 277 274 269 266 262 256 247 240 238 238 236 233 229 227 225 225 225 225 225 225 224 223 222 221 221 221 221 223 227 229 230 229 228 226 224 223 223 223 224 226 227 226 226 228 231 234 237 239 245 245 238 232 238 244
285 288 291 291 291 291 291 295 300 304 304 303 302 301 301 302 304 306 306 306 306 306 302 296 288 283 283 285 285 282 281 282 282 277 270 264 258 249 240 234 232 230 228 225 222 222 222 223 224 223 221 220 218 216 215 216 217 218 221 224 227 228 229 229 227 225 224 223 222 222 224 226 226 226 227 231 235 235 239 244 241 231 230 238 244
287 290 292 291 290 291 295 301 305 306 306 304 302 301 301 302 305 308 309 309 310 308 301 295 294 292 289 289 291 287 282 282 283 281 275 266 259 251 241 233 229 226 224 222 221 221 221 221 221 219 216 214 212 211 211 213 215 216 219 222 225 227 228 229 228 225 223 222 221 221 222 224 226 226 227 232 235 237 241 244 236 226 229 238 242
289 290 290 290 291 296 302 305 307 307 306 304 302 301 302 304 307 310 311 312 313 309 299 293 297 297 292 290 290 286 281 281 281 280 276 268 259 251 242 233 227 223 220 219 220 221 220 219 218 216 212 209 208 208 210 212 214 216 219 223 225 226 229 230 229 226 224 222 220 219 220 223 225 226 228 231 234 239 244 239 227 222 230 237 241
289 290 291 293 297 303 306 307 308 308 307 304 301 301 304 306 309 311 314 316 316 312 301 294 297 298 294 293 293 288 283 280 280 278 274 267 258 250 240 231 226 221 217 216 218 219 217 214 212 210 208 207 208 209 210 213 215 218 222 225 227 228 230 232 231 228 225 222 219 218 218 222 225 227 229 230 233 239 241 232 223 226 233 237 240
289 291 294 297 302 306 308 309 310 309 307 304 300 301 306 309 312 315 317 320 320 315 303 297 297 295 294 298 300 297 290 284 281 280 275 266 256 245 233 226 223 220 216 214 215 217 216 212 208 206 207 208 209 210 212 215 218 220 223 225 227 230 232 233 233 230 225 221 218 216 216 219 223 227 230 230 232 237 236 227 225 233 237 237 239
292 295 297 301 305 308 310 311 311 311 309 303 298 301 307 312 316 319 321 323 323 315 302 297 294 289 290 298 301 299 293 285 280 280 276 266 252 235 224 220 220 219 216 214 213 214 214 212 209 207 208 209 210 212 215 217 220 221 223 225 227 229 232 233 234 232 225 219 216 215 215 218 222 225 229 231 233 237 237 230 228 233 234 235 238
294 298 301 304 308 310 311 313 315 315 311 303 298 302 307 312 317 320 323 325 324 314 302 296 291 284 286 294 297 297 293 281 275 282 283 268 246 226 215 213 217 219 218 216 215 214 215 214 213 211 211 212 213 215 218 221 222 223 225 227 228 230 231 231 232 231 225 218 214 214 217 220 223 226 229 231 233 236 235 231 232 235 234 235 239
294 299 304 308 312 314 315 317 320 321 316 306 301 304 308 312 318 321 323 326 323 313 301 293 288 284 287 295 298 296 289 273 271 286 295 277 241 217 207 206 209 213 216 217 216 216 216 216 216 216 216 216 217 219 222 223 225 226 227 228 228 228 228 229 229 228 222 216 213 214 217 221 225 228 230 232 235 236 232 230 234 237 237 238 241
296 302 308 313 316 317 319 322 324 325 321 313 306 306 309 314 319 321 324 328 325 314 298 288 285 285 290 296 300 296 286 272 269 280 299 291 231 206 200 198 200 205 211 214 215 217 219 218 219 219 220 220 220 222 223 224 225 226 227 226 226 226 226 226 226 222 216 213 213 215 218 221 224 225 228 232 235 233 230 230 234 236 236 238 241
295 303 308 313 317 319 322 326 328 328 326 320 314 310 311 314 319 322 326 331 330 321 302 287 284 286 290 298 304 300 280 259 260 271 286 288 227 198 194 196 199 203 207 211 213 215 218 219 220 220 220 220 220 220 221 222 222 221 220 220 222 224 225 224 220 214 209 207 210 215 219 221 221 223 229 231 228 225 225 229 232 233 234 237 240
295 298 305 316 322 321 324 329 331 330 330 327 322 316 313 314 319 323 328 333 335 331 314 291 279 280 286 294 306 308 266 234 242 252 254 250 226 194 187 192 198 201 203 205 208 212 214 216 218 218 217 216 215 213 212 212 213 213 214 215 217 219 221 219 214 210 206 205 208 214 219 219 218 223 227 225 221 220 224 227 230 232 235 237 238
293 295 305 322 328 324 325 330 333 331 332 332 328 322 317 316 319 323 328 336 342 340 330 302 266 265 279 289 306 327 277 214 220 235 229 218 207 191 185 187 191 194 196 198 201 206 209 209 209 208 207 204 202 201 202 205 209 212 214 214 213 212 214 213 210 209 208 209 212 216 218 216 217 222 223 220 219 222 227 229 231 233 234 233 234
287 291 305 324 332 327 325 331 335 334 334 335 334 330 324 320 320 324 329 338 348 349 342 325 278 266 280 291 300 309 290 151 129 117 198 193 191 191 190 187 186 187 189 191 193 195 196 195 194 194 195 195 195 198 201 205 207 206 207 208 208 208 209 210 210 210 210 212 215 217 217 216 219 223 224 223 222 223 226 229 230 230 229 229 233
287 292 304 319 327 323 322 328 335 336 335 336 338 337 332 325 323 326 330 338 351 358 354 342 311 276 278 285 279 257 206 153 142 165 175 171 175 185 191 190 187 185 185 186 186 185 185 185 186 189 194 197 199 200 202 203 202 199 198 199 201 205 210 212 212 214 215 216 216 217 217 218 222 228 232 229 224 222 226 230 229 228 228 230 234
295 297 303 312 317 315 317 325 333 337 337 338 339 341 339 334 329 329 331 337 349 3 6 355 333 297 278 279 257 217 191 182 180 177 170 163 162 167 176 181 182 183 183 183 181 181 182 183 185 188 194 199 200 198 199 200 199 198 200 202 203 206 213 216 216 218 219 219 218 218 219 222 226 232 234 228 222 222 228 230 228 228 229 230 234
299 300 306 311 313 311 315 323 331 336 338 339 340 342 343 343 339 333 333 337 346 2 14 9 354 346 348 272 216 194 189 194 190 181 176 168 161 161 167 174 178 180 181 180 178 177 177 181 186 190 194 198 199 197 196 198 200 200 203 205 205 205 209 214 216 217 217 217 218 219 222 226 230 231 228 222 220 223 225 224 223 225 227 230 236
303 307 313 316 316 316 319 324 328 333 336 339 341 343 346 349 347 340 337 339 343 355 15 20 14 16 48 123 172 180 184 190 192 187 180 173 168 168 171 175 177 176 175 175 176 174 171 172 179 185 186 188 192 194 196 203 205 202 201 204 205 205 209 214 215 214 213 213 216 219 223 226 225 222 219 217 218 219 218 218 221 225 227 232 239
309 315 320 322 321 323 324 325 325 330 335 339 342 344 347 351 353 349 345 342 342 347 7 25 28 28 48 111 154 175 186 188 187 185 179 174 175 176 174 174 174 172 174 182 186 183 179 179 183 187 187 187 189 194 199 205 206 202 200 204 209 213 213 210 207 207 209 212 214 217 218 217 215 212 212 214 214 214 214 218 222 225 229 235 242
314 321 327 328 327 327 328 327 327 330 335 339 341 343 347 352 356 356 353 348 344 344 353 16 36 40 46 86 133 158 175 179 180 181 177 171 169 167 164 167 172 176 186 199 196 186 186 189 189 190 190 188 189 193 199 205 209 208 206 205 208 210 206 199 197 201 205 207 207 208 208 208 209 210 211 211 211 212 215 218 222 227 234 240 246
311 321 328 332 331 330 331 332 331 331 334 337 339 342 348 353 358 1 359 353 350 348 347 358 29 47 50 65 107 138 151 160 172 181 185 183 175 165 157 163 177 188 200 207 200 190 188 188 187 189 188 184 180 183 189 194 201 205 202 198 197 198 196 194 195 197 197 196 195 197 199 201 203 204 203 206 210 215 218 221 224 230 237 243 249
300 313 321 328 334 336 337 337 334 332 334 337 340 344 349 354 358 2 3 359 355 355 351 349 5 38 55 62 81 118 141 149 160 174 184 192 193 185 179 183 193 199 202 205 205 200 191 184 181 186 188 185 180 178 179 180 184 187 188 188 188 186 187 189 191 189 187 187 189 192 194 197 198 200 204 210 216 220 223 226 229 234 239 246 253
290 300 311 322 331 336 338 339 338 335 336 339 342 344 350 355 358 1 5 5 2 1 359 354 353 11 47 64 73 92 123 142 152 162 171 180 189 190 188 190 194 195 196 204 217 213 196 182 176 179 186 189 188 184 181 179 178 178 180 183 184 183 184 188 189 187 187 192 196 198 200 204 208 212 217 222 224 225 227 229 232 236 242 248 255
282 289 301 313 320 325 328 333 339 341 341 342 344 344 348 354 357 0 6 9 8 6 5 2 358 357 12 52 73 85 100 121 141 153 162 169 177 181 180 181 183 187 194 206 215 210 196 186 183 184 189 193 194 191 187 184 181 177 176 179 182 185 189 192 193 193 197 203 206 206 208 211 215 219 223 226 228 229 229 231 234 239 244 249 255
273 279 288 298 306 313 320 328 336 343 345 345 346 345 348 352 356 0 7 10 10 10 9 8 5 2 358 5 51 83 95 106 121 138 150 159 166 169 170 172 175 179 183 186 188 187 185 184 186 188 186 185 187 188 186 182 181 179 178 180 184 187 190 192 194 199 206 210 210 209 209 211 214 218 221 224 227 229 232 235 240 244 249 254 258
265 269 274 282 291 300 310 319 328 336 340 343 345 346 348 350 353 359 6 10 9 10 13 13 11 8 3 356 356 35 86 102 110 121 133 145 155 160 163 163 164 167 169 169 167 167 167 168 171 172 171 172 179 184 184 181 181 183 183 183 184 185 187 191 197 205 211 213 212 212 214 217 220 223 225 228 231 235 238 242 246 250 253 256 259
Height
5688 5688 5688 5688 5688 5688 5688 5688 5688 5688 5688 5687 5687 5687 5687 5687 5687 5688 5688 5688 5688 5688 5688 5688 5688 5689 5690 5691 5691 5692 5692 5693 5693 5694 5696 5697 5699 5701 5702 5704 5705 5707 5708 5710 5712 5715 5718 5720 5722 5725 5727 5730 5733 5736 5739 5742 5743 5744 5747 5748 5751 5754 5756 5756 5758 5761 5763 5762 5765 5770 5771 5775 5779 5778 5780 5784 5785 5786 5791 5792 5790 5789 5792 5794 5795
5683 5683 5683 5682 5682 5682 5682 5682 5682 5682 5681 5681 5681 5681 5681 5681 5681 5681 5682 5682 5682 5682 5682 5682 5682 5682 5683 5684 5684 5685 5686 5686 5687 5687 5688 5690 5691 5693 5695 5696 5698 5699 5701 5703 5705 5707 5710 5712 5715 5717 5720 5722 5725 5728 5732 5735 5737 5739 5742 5743 5745 5748 5751 5753 5754 5757 5759 5758 5759 5761 5764 5770 5773 5772 5774 5779 5779 5781 5786 5787 5784 5785 5788 5789 5790
5677 5677 5677 5676 5676 5676 5676 5676 5676 5676 5675 5675 5675 5675 5675 5675 5675 5675 5675 5675 5676 5676 5676 5676 5675 5676 5677 5677 5678 5678 5679 5680 5680 5681 5681 5682 5684 5685 5687 5688 5690 5692 5694 5696 5698 5699 5702 5705 5707 5709 5712 5715 5718 5721 5724 5727 5730 5734 5737 5738 5739 5742 5744 5747 5749 5752 5754 5754 5754 5755 5759 5765 5768 5767 5768 5771 5773 5776 5780 5780 5779 5781 5784 5785 5786
5671 5671 5671 5671 5671 5670 5670 5670 5670 5670 5669 5669 5669 5669 5669 5668 5668 5668 5668 5668 5669 5669 5669 5669 5669 5669 5670 5670 5671 5671 5672 5673 5673 5674 5675 5675 5677 5678 5679 5681 5682 5684 5686 5688 5691 5692 5694 5697 5699 5702 5704 5707 5711 5714 5716 5719 5722 5726 5730 5733 5735 5736 5738 5741 5743 5745 5747 5748 5748 5751 5755 5758 5760 5762 5763 5764 5767 5771 5773 5774 5774 5777 5779 5780 5781
5665 5665 5665 5665 5665 5664 5664 5664 5664 5663 5663 5662 5662 5662 5662 5661 5661 5661 5661 5661 5661 5662 5662 5662 5662 5662 5663 5663 5664 5664 5665 5665 5666 5667 5667 5668 5669 5671 5672 5673 5675 5676 5679 5681 5683 5685 5687 5689 5692 5694 5696 5700 5703 5706 5709 5711 5714 5718 5722 5725 5729 5731 5733 5735 5738 5739 5741 5742 5744 5746 5748 5752 5754 5756 5758 5758 5761 5765 5767 5768 5769 5772 5774 5775 5776
5660 5659 5659 5659 5659 5658 5658 5658 5657 5657 5656 5656 5656 5655 5655 5655 5654 5654 5653 5654 5653 5653 5654 5654 5654 5655 5655 5656 5656 5657 5658 5658 5659 5659 5660 5660 5662 5663 5664 5666 5667 5669 5671 5673 5675 5678 5679 5681 5684 5686 5689 5692 5695 5698 5701 5703 5706 5710 5713 5717 5721 5724 5727 5730 5732 5733 5735 5738 5741 5741 5741 5746 5750 5752 5754 5754 5756 5758 5760 5761 5763 5765 5768 5770 5770
5654 5654 5653 5653 5653 5652 5652 5651 5651 5650 5650 5649 5649 5649 5648 5648 5647 5647 5646 5646 5645 5645 5645 5646 5646 5647 5648 5648 5648 5649 5650 5651 5651 5652 5652 5653 5654 5655 5656 5658 5660 5661 5663 5665 5667 5669 5671 5673 5675 5678 5682 5685 5687 5690 5693 5695 5699 5702 5705 5709 5713 5717 5721 5724 5725 5728 5730 5733 5735 5736 5736 5740 5745 5748 5749 5749 5751 5752 5753 5755 5757 5760 5762 5764 5764
5649 5649 5648 5647 5647 5646 5646 5645 5644 5644 5643 5643 5642 5642 5641 5641 5640 5640 5639 5638 5638 5637 5637 5637 5638 5638 5639 5640 5640 5641 5641 5642 5643 5644 5645 5645 5645 5646 5648 5649 5651 5653 5655 5656 5658 5661 5663 5664 5667 5670 5674 5678 5680 5682 5684 5687 5691 5695 5698 5702 5705 5709 5714 5717 5718 5721 5725 5728 5729 5730 5731 5734 5739 5742 5743 5744 5747 5748 5749 5751 5754 5755 5756 5757 5758
5644 5644 5643 5642 5641 5640 5639 5639 5638 5637 5636 5636 5635 5634 5634 5633 5633 5632 5631 5631 5630 5630 5629 5629 5629 5630 5630 5631 5632 5632 5633 5634 5635 5636 5636 5637 5637 5638 5639 5641 5643 5644 5647 5648 5650 5653 5655 5657 5659 5662 5666 5670 5673 5675 5677 5679 5683 5687 5691 5694 5697 5701 5706 5710 5711 5713 5719 5723 5724 5723 5724 5727 5733 5738 5739 5740 5743 5744 5745 5747 5748 5749 5750 5751 5753
5639 5638 5637 5637 5636 5634 5633 5632 5632 5631 5630 5629 5628 5627 5627 5626 5625 5625 5624 5623 5623 5622 5621 5621 5621 5621 5622 5622 5623 5624 5624 5626 5627 5627 5627 5627 5628 5629 5630 5632 5634 5635 5638 5640 5642 5644 5647 5649 5651 5654 5657 5661 5664 5667 5669 5672 5675 5679 5684 5687 5690 5694 5699 5702 5704 5706 5712 5717 5717 5716 5718 5722 5729 5734 5735 5736 5737 5738 5740 5742 5742 5743 5745 5746 5748
5634 5633 5632 5631 5630 5629 5627 5626 5625 5624 5623 5622 5621 5620 5619 5619 5618 5617 5616 5616 5615 5614 5614 5613 5613 5613 5613 5614 5614 5615 5616 5617 5618 5618 5618 5618 5618 5619 5620 5622 5624 5626 5629 5631 5634 5636 5638 5641 5643 5645 5648 5652 5656 5659 5662 5664 5668 5672 5676 5680 5683 5687 5692 5695 5697 5700 5705 5709 5710 5710 5713 5718 5725 5729 5730 5731 5732 5733 5735 5736 5736 5738 5740 5741 5743
5629 5628 5627 5625 5624 5623 5621 5620 5619 5617 5616 5615 5614 5613 5612 5611 5610 5610 5609 5608 5607 5606 5606 5605 5605 5605 5605 5605 5606 5606 5607 5608 5608 5609 5609 5609 5609 5609 5610 5612 5615 5617 5619 5621 5624 5627 5630 5632 5635 5637 5640 5644 5648 5650 5654 5657 5660 5664 5668 5672 5676 5680 5684 5687 5690 5694 5698 5701 5703 5705 5708 5714 5720 5723 5725 5726 5728 5729 5730 5730 5731 5733 5735 5736 5738
5624 5623 5621 5620 5618 5617 5616 5614 5612 5611 5610 5609 5607 5606 5605 5604 5603 5602 5601 5600 5599 5599 5598 5597 5597 5596 5596 5597 5597 5597 5598 5599 5599 5599 5599 5599 5599 5599 5600 5602 5604 5607 5610 5612 5614 5618 5621 5623 5626 5629 5633 5636 5639 5642 5646 5649 5653 5656 5660 5664 5668 5672 5676 5680 5684 5688 5692 5694 5697 5699 5702 5708 5715 5719 5719 5720 5721 5723 5723 5725 5726 5728 5729 5731 5732
5619 5617 5616 5614 5613 5611 5610 5608 5606 5605 5604 5602 5601 5599 5598 5596 5595 5594 5593 5592 5591 5591 5590 5589 5589 5588 5587 5588 5588 5589 5589 5589 5590 5590 5590 5590 5589 5589 5590 5591 5593 5596 5600 5602 5605 5608 5612 5615 5618 5622 5625 5627 5631 5634 5637 5641 5645 5648 5652 5656 5660 5664 5668 5673 5677 5681 5685 5688 5691 5693 5696 5703 5711 5714 5713 5712 5714 5716 5717 5719 5721 5723 5724 5726 5727
5614 5612 5611 5609 5607 5606 5604 5602 5601 5599 5598 5596 5594 5592 5590 5589 5588 5586 5585 5584 5583 5583 5582 5581 5580 5580 5579 5578 5579 5580 5580 5579 5579 5580 5580 5580 5579 5579 5580 5581 5583 5586 5589 5592 5595 5598 5602 5606 5609 5613 5616 5619 5623 5627 5629 5632 5636 5640 5644 5648 5653 5656 5661 5666 5670 5673 5677 5681 5685 5688 5691 5697 5704 5706 5706 5705 5707 5709 5712 5714 5716 5718 5719 5721 5722
5608 5607 5606 5604 5602 5600 5598 5596 5595 5593 5591 5589 5587 5586 5583 5582 5580 5579 5578 5577 5575 5575 5574 5573 5572 5571 5571 5570 5569 5570 5570 5569 5569 5569 5569 5569 5568 5569 5570 5571 5572 5575 5578 5582 5585 5588 5592 5596 5600 5605 5608 5611 5616 5619 5621 5624 5627 5631 5635 5640 5644 5648 5653 5658 5662 5665 5669 5674 5678 5681 5685 5690 5696 5699 5700 5700 5701 5703 5707 5709 5711 5714 5715 5716 5718
5603 5602 5600 5598 5596 5594 5592 5590 5588 5586 5584 5582 5580 5578 5576 5575 5573 5571 5570 5569 5568 5567 5565 5564 5563 5562 5562 5561 5560 5560 5560 5560 5559 5558 5558 5558 5558 5558 5560 5560 5562 5565 5568 5572 5575 5579 5583 5587 5591 5595 5599 5604 5608 5611 5614 5616 5618 5621 5626 5631 5636 5640 5644 5650 5654 5658 5662 5668 5671 5675 5679 5683 5688 5693 5695 5695 5696 5698 5701 5705 5707 5709 5710 5711 5713
5598 5596 5595 5593 5591 5589 5587 5585 5582 5580 5578 5575 5573 5572 5570 5568 5566 5565 5563 5562 5560 5559 5557 5556 5555 5554 5553 5552 5550 5549 5550 5549 5548 5547 5547 5546 5546 5548 5548 5549 5552 5555 5558 5561 5565 5569 5573 5578 5582 5586 5591 5597 5600 5603 5606 5608 5610 5613 5618 5623 5628 5632 5637 5643 5648 5652 5657 5661 5665 5670 5674 5677 5682 5686 5688 5689 5691 5693 5696 5700 5702 5703 5705 5707 5708
5593 5591 5589 5587 5585 5583 5581 5579 5576 5574 5571 5569 5567 5566 5564 5562 5560 5558 5556 5555 5553 5551 5549 5547 5546 5545 5543 5542 5540 5539 5539 5539 5538 5537 5536 5535 5536 5537 5537 5538 5542 5545 5548 5551 5556 5560 5564 5569 5574 5578 5584 5589 5592 5595 5598 5601 5603 5606 5609 5614 5619 5625 5631 5638 5642 5646 5651 5655 5659 5664 5668 5672 5676 5680 5682 5684 5687 5689 5691 5694 5696 5697 5699 5702 5704
5588 5586 5584 5582 5580 5577 5575 5573 5570 5568 5566 5563 5562 5560 5558 5556 5554 5552 5549 5547 5545 5543 5541 5539 5537 5536 5535 5533 5532 5530 5529 5529 5528 5527 5526 5526 5526 5526 5526 5529 5532 5536 5539 5542 5547 5552 5556 5561 5566 5571 5576 5581 5585 5588 5591 5594 5596 5599 5602 5606 5612 5617 5624 5631 5635 5639 5644 5648 5652 5657 5662 5666 5670 5672 5676 5679 5682 5683 5686 5689 5691 5692 5695 5697 5699
5583 5581 5579 5577 5574 5572 5569 5567 5565 5563 5560 5558 5557 5554 5552 5550 5547 5545 5542 5540 5538 5535 5533 5531 5529 5528 5527 5524 5522 5521 5519 5519 5518 5518 5517 5517 5516 5516 5517 5520 5523 5526 5530 5534 5539 5544 5548 5553 5558 5563 5568 5573 5577 5580 5584 5587 5589 5592 5595 5600 5604 5609 5617 5623 5626 5631 5636 5640 5644 5650 5655 5659 5662 5665 5670 5674 5676 5678 5681 5683 5685 5687 5690 5692 5694
5577 5576 5574 5571 5569 5566 5564 5562 5560 5558 5555 5553 5551 5549 5546 5543 5541 5539 5536 5534 5531 5528 5525 5523 5521 5520 5518 5515 5513 5511 5510 5509 5509 5509 5508 5508 5508 5508 5509 5512 5514 5518 5522 5526 5531 5536 5541 5545 5550 5555 5560 5565 5569 5573 5576 5579 5582 5586 5589 5592 5596 5602 5610 5614 5617 5622 5627 5632 5637 5642 5647 5651 5656 5660 5665 5669 5671 5673 5674 5676 5678 5682 5685 5687 5688
5573 5571 5568 5566 5564 5561 5559 5557 5555 5553 5551 5548 5546 5543 5540 5538 5535 5533 5530 5527 5524 5521 5518 5515 5513 5511 5509 5506 5504 5502 5502 5501 5500 5500 5499 5500 5500 5501 5502 5504 5507 5510 5514 5519 5524 5528 5533 5537 5543 5548 5553 5558 5562 5566 5569 5572 5576 5580 5583 5586 5590 5596 5602 5606 5609 5615 5620 5625 5630 5636 5641 5645 5650 5654 5659 5663 5665 5667 5669 5670 5673 5677 5680 5682 5684
5568 5565 5563 5561 5559 5556 5555 5552 5550 5548 5546 5543 5540 5538 5535 5533 5530 5527 5524 5520 5517 5514 5511 5508 5505 5502 5500 5498 5497 5495 5495 5494 5493 5492 5492 5493 5493 5495 5496 5498 5500 5503 5507 5512 5516 5521 5526 5530 5535 5540 5545 5550 5554 5558 5562 5565 5570 5574 5578 5581 5585 5590 5594 5598 5603 5608 5614 5619 5625 5630 5634 5639 5643 5647 5652 5657 5660 5662 5664 5666 5669 5672 5675 5677 5680
5562 5560 5558 5556 5554 5552 5550 5548 5546 5544 5541 5538 5535 5533 5530 5528 5525 5522 5519 5515 5512 5508 5505 5501 5498 5496 5494 5493 5492 5490 5489 5489 5488 5487 5486 5486 5487 5488 5490 5492 5495 5498 5502 5506 5510 5514 5519 5523 5527 5532 5537 5542 5546 5551 5555 5559 5564 5570 5573 5577 5580 5584 5588 5592 5596 5602 5608 5613 5619 5624 5628 5632 5637 5642 5647 5652 5655 5658 5660 5662 5665 5668 5670 5673 5674
5557 5555 5553 5551 5550 5548 5545 5543 5541 5539 5536 5533 5531 5528 5526 5523 5520 5517 5514 5510 5506 5502 5498 5495 5492 5491 5490 5489 5487 5486 5484 5483 5482 5481 5480 5480 5481 5483 5485 5487 5490 5493 5497 5501 5504 5508 5512 5516 5520 5525 5530 5535 5539 5544 5549 5554 5560 5564 5568 5571 5574 5578 5582 5586 5590 5596 5601 5607 5613 5618 5622 5627 5632 5637 5642 5646 5649 5652 5654 5657 5660 5663 5665 5667 5668
5553 5551 5549 5547 5545 5543 5541 5539 5537 5534 5532 5529 5526 5524 5522 5519 5516 5513 5509 5505 5501 5497 5493 5490 5488 5487 5486 5484 5483 5481 5479 5478 5476 5475 5475 5474 5475 5477 5479 5482 5485 5489 5492 5496 5499 5502 5506 5510 5514 5518 5523 5528 5533 5538 5543 5549 5554 5558 5562 5565 5568 5573 5577 5581 5585 5589 5595 5600 5606 5612 5617 5623 5628 5632 5636 5640 5643 5646 5649 5652 5655 5657 5660 5661 5662
5548 5546 5545 5543 5541 5539 5537 5535 5533 5530 5527 5525 5522 5520 5518 5515 5513 5509 5505 5500 5496 5492 5488 5486 5484 5483 5481 5480 5478 5477 5475 5473 5472 5470 5470 5469 5470 5471 5474 5477 5481 5485 5488 5492 5496 5499 5503 5506 5509 5513 5518 5522 5528 5533 5539 5544 5548 5552 5556 5559 5564 5568 5572 5576 5580 5584 5589 5594 5601 5607 5612 5617 5622 5627 5631 5635 5638 5642 5644 5647 5649 5652 5654 5656 5657
5544 5542 5541 5539 5537 5535 5533 5531 5528 5526 5523 5521 5519 5516 5514 5512 5509 5505 5500 5495 5491 5487 5484 5482 5480 5479 5477 5476 5475 5473 5472 5470 5468 5467 5466 5465 5465 5466 5468 5472 5476 5480 5484 5488 5492 5496 5499 5503 5507 5511 5515 5520 5525 5530 5535 5540 5544 5548 5552 5556 5561 5565 5568 5572 5576 5580 5585 5591 5597 5602 5607 5612 5617 5621 5626 5630 5634 5637 5639 5642 5644 5647 5649 5651 5652
5540 5538 5537 5535 5533 5532 5530 5527 5525 5522 5519 5517 5515 5513 5510 5508 5505 5501 5497 5492 5487 5483 5480 5479 5477 5475 5474 5472 5470 5469 5468 5467 5465 5463 5462 5461 5462 5462 5464 5467 5472 5476 5480 5484 5488 5492 5496 5500 5504 5509 5513 5518 5523 5528 5533 5537 5542 5546 5550 5555 5558 5562 5565 5569 5573 5576 5581 5586 5592 5597 5603 5609 5613 5616 5620 5625 5629 5632 5635 5637 5639 5642 5644 5646 5647
5536 5535 5533 5531 5530 5528 5526 5524 5521 5518 5516 5514 5512 5510 5507 5504 5501 5497 5493 5489 5485 5480 5477 5476 5474 5472 5471 5469 5467 5465 5464 5463 5461 5460 5459 5458 5458 5459 5461 5464 5468 5471 5475 5479 5484 5489 5493 5497 5501 5506 5511 5516 5521 5526 5531 5535 5539 5544 5547 5551 5555 5558 5562 5566 5569 5572 5577 5581 5587 5592 5599 5605 5608 5611 5616 5620 5624 5628 5631 5633 5635 5638 5640 5641 5643
5532 5531 5530 5528 5527 5525 5523 5521 5518 5515 5513 5511 5509 5507 5505 5502 5498 5494 5489 5485 5481 5478 5475 5473 5471 5470 5469 5467 5465 5463 5461 5459 5458 5457 5456 5455 5456 5457 5459 5462 5465 5468 5471 5476 5481 5486 5491 5495 5499 5503 5508 5513 5518 5523 5527 5532 5536 5540 5543 5547 5551 5555 5559 5562 5565 5568 5572 5577 5582 5588 5595 5599 5602 5606 5611 5616 5619 5623 5627 5630 5631 5634 5635 5637 5639
5530 5528 5527 5525 5524 5522 5520 5518 5515 5512 5510 5508 5506 5504 5502 5499 5496 5492 5488 5483 5479 5475 5473 5471 5469 5468 5467 5465 5463 5461 5459 5458 5457 5456 5454 5453 5453 5454 5457 5460 5463 5467 5470 5474 5479 5483 5488 5492 5496 5500 5505 5510 5514 5519 5523 5527 5532 5535 5539 5543 5547 5551 5554 5557 5561 5564 5568 5573 5578 5584 5590 5594 5598 5602 5607 5612 5616 5620 5623 5625 5627 5628 5630 5633 5635
5527 5526 5524 5523 5521 5519 5517 5515 5512 5510 5507 5505 5503 5501 5499 5497 5494 5490 5487 5483 5479 5474 5471 5469 5467 5466 5465 5463 5461 5459 5458 5457 5456 5455 5453 5452 5451 5452 5455 5459 5462 5466 5469 5473 5477 5481 5484 5488 5492 5497 5501 5506 5510 5515 5519 5523 5527 5531 5534 5538 5542 5545 5549 5552 5556 5560 5564 5569 5575 5580 5586 5590 5594 5599 5604 5609 5613 5616 5618 5620 5621 5623 5626 5629 5632
5525 5523 5522 5520 5518 5516 5514 5512 5510 5508 5505 5502 5500 5498 5496 5494 5491 5488 5485 5481 5477 5473 5470 5467 5465 5464 5463 5461 5460 5458 5457 5456 5456 5455 5454 5452 5451 5452 5455 5458 5462 5465 5467 5471 5474 5478 5481 5485 5489 5494 5498 5502 5506 5511 5515 5518 5522 5526 5530 5534 5538 5541 5545 5549 5552 5556 5561 5567 5573 5578 5583 5587 5591 5596 5601 5605 5609 5611 5613 5615 5617 5620 5624 5627 5629
5522 5521 5520 5518 5515 5513 5512 5510 5508 5506 5503 5500 5498 5496 5494 5492 5489 5486 5483 5479 5475 5472 5469 5466 5464 5463 5461 5460 5459 5457 5456 5455 5455 5455 5454 5454 5453 5454 5456 5458 5461 5464 5466 5469 5472 5476 5480 5484 5488 5492 5496 5499 5503 5506 5510 5514 5519 5522 5526 5531 5534 5538 5541 5545 5548 5552 5558 5565 5571 5575 5579 5583 5589 5594 5599 5602 5604 5606 5608 5611 5614 5617 5621 5623 5626
5520 5519 5518 5516 5513 5511 5509 5508 5506 5504 5501 5498 5496 5494 5492 5490 5487 5484 5481 5478 5474 5471 5467 5465 5463 5462 5461 5460 5458 5456 5455 5455 5455 5455 5455 5455 5455 5455 5457 5459 5461 5463 5466 5469 5472 5476 5479 5483 5486 5490 5493 5497 5500 5504 5508 5512 5516 5520 5524 5528 5531 5535 5538 5542 5545 5550 5556 5562 5567 5571 5576 5581 5587 5592 5595 5597 5598 5601 5604 5608 5611 5614 5617 5620 5622
5518 5517 5516 5514 5511 5509 5508 5506 5505 5502 5500 5497 5494 5492 5489 5488 5485 5483 5480 5477 5474 5470 5467 5465 5463 5462 5460 5460 5458 5457 5455 5455 5455 5454 5454 5455 5455 5456 5458 5459 5461 5463 5466 5469 5472 5475 5478 5482 5485 5489 5492 5495 5499 5503 5506 5510 5514 5518 5522 5526 5529 5533 5536 5540 5543 5548 5553 5558 5563 5568 5574 5580 5585 5589 5591 5593 5595 5598 5602 5606 5609 5612 5614 5616 5617
5516 5515 5514 5512 5510 5507 5506 5505 5503 5501 5498 5496 5493 5491 5488 5486 5484 5482 5479 5476 5474 5470 5467 5464 5462 5461 5460 5460 5459 5458 5457 5455 5455 5455 5455 5455 5456 5457 5458 5460 5462 5464 5466 5469 5472 5475 5478 5481 5484 5488 5491 5494 5498 5501 5505 5509 5512 5516 5519 5523 5527 5531 5535 5538 5542 5546 5550 5556 5561 5566 5572 5577 5581 5585 5588 5590 5593 5596 5600 5604 5607 5609 5610 5612 5613
5514 5513 5512 5510 5508 5506 5505 5503 5502 5500 5497 5495 5492 5490 5487 5485 5483 5481 5478 5476 5473 5471 5467 5464 5462 5461 5460 5459 5458 5458 5458 5457 5456 5456 5456 5455 5456 5457 5459 5461 5463 5465 5467 5469 5472 5475 5478 5481 5484 5487 5490 5494 5497 5500 5504 5508 5511 5514 5518 5521 5525 5529 5533 5537 5541 5545 5550 5555 5560 5565 5570 5574 5578 5581 5584 5587 5590 5595 5599 5602 5604 5605 5606 5608 5610
5512 5511 5510 5509 5507 5505 5503 5502 5501 5498 5496 5494 5491 5489 5486 5484 5482 5480 5478 5475 5473 5471 5468 5465 5463 5461 5459 5458 5457 5457 5458 5458 5457 5457 5457 5457 5457 5458 5460 5462 5464 5466 5468 5470 5472 5475 5477 5481 5484 5487 5490 5493 5496 5499 5503 5507 5511 5514 5518 5521 5524 5528 5532 5536 5541 5545 5550 5554 5559 5563 5567 5571 5575 5578 5580 5584 5589 5593 5596 5598 5600 5601 5603 5605 5607
5510 5509 5508 5507 5506 5504 5502 5501 5499 5498 5495 5493 5491 5489 5486 5483 5481 5479 5477 5475 5473 5471 5468 5466 5464 5462 5459 5458 5457 5457 5458 5458 5459 5458 5458 5458 5458 5459 5461 5463 5465 5467 5469 5471 5473 5475 5477 5480 5484 5488 5491 5493 5496 5499 5503 5506 5510 5514 5517 5520 5524 5528 5532 5536 5540 5544 5549 5553 5556 5561 5565 5569 5572 5575 5578 5582 5586 5590 5592 5594 5596 5597 5600 5602 5604
5509 5508 5507 5505 5504 5503 5501 5500 5498 5496 5494 5492 5490 5488 5486 5483 5481 5479 5477 5475 5473 5471 5469 5467 5466 5463 5461 5459 5458 5459 5459 5459 5460 5460 5460 5460 5460 5461 5462 5463 5466 5468 5470 5472 5474 5476 5478 5481 5484 5487 5490 5493 5496 5499 5503 5506 5509 5513 5517 5520 5524 5527 5531 5534 5538 5542 5546 5550 5554 5559 5563 5566 5569 5572 5576 5580 5583 5586 5588 5590 5592 5594 5597 5599 5601
5507 5506 5505 5504 5503 5502 5500 5499 5498 5496 5494 5492 5489 5487 5485 5483 5481 5479 5477 5475 5473 5472 5470 5468 5467 5465 5463 5461 5460 5460 5460 5460 5461 5461 5461 5461 5462 5463 5464 5465 5467 5469 5471 5474 5476 5478 5480 5482 5485 5488 5490 5493 5497 5500 5503 5506 5508 5512 5516 5519 5522 5525 5528 5531 5535 5539 5544 5548 5553 5558 5561 5565 5568 5571 5574 5577 5580 5583 5585 5587 5589 5591 5594 5596 5597
5506 5505 5504 5503 5502 5501 5499 5498 5497 5495 5493 5491 5489 5487 5486 5484 5481 5479 5477 5475 5474 5473 5471 5469 5468 5466 5465 5463 5461 5461 5461 5461 5462 5462 5462 5463 5464 5465 5466 5468 5469 5471 5473 5475 5477 5479 5481 5483 5485 5488 5491 5494 5496 5499 5502 5505 5508 5511 5514 5517 5520 5523 5526 5529 5533 5538 5543 5548 5553 5558 5561 5564 5567 5570 5572 5575 5578 5580 5583 5585 5587 5589 5590 5592 5593
5505 5504 5503 5502 5501 5500 5499 5498 5496 5495 5493 5491 5489 5487 5486 5484 5482 5480 5477 5475 5474 5473 5472 5471 5469 5468 5467 5465 5464 5462 5462 5462 5463 5464 5464 5464 5466 5467 5469 5471 5472 5473 5474 5476 5478 5480 5482 5483 5485 5487 5490 5493 5495 5498 5501 5504 5507 5510 5513 5515 5518 5522 5526 5530 5534 5539 5544 5549 5554 5557 5560 5562 5565 5567 5570 5573 5575 5578 5580 5582 5584 5585 5587 5588 5589
5504 5503 5502 5501 5500 5499 5498 5497 5496 5494 5493 5491 5489 5487 5486 5484 5482 5481 5479 5477 5475 5473 5473 5472 5471 5469 5468 5467 5466 5465 5464 5464 5464 5465 5465 5466 5467 5468 5470 5472 5473 5474 5475 5477 5479 5481 5482 5483 5485 5487 5490 5492 5494 5497 5500 5503 5506 5509 5513 5516 5520 5524 5528 5532 5537 5541 5546 5550 5553 5555 5558 5560 5563 5565 5568 5570 5572 5574 5576 5578 5580 5581 5583 5584 5584
5503 5502 5501 5500 5499 5498 5498 5497 5495 5494 5493 5491 5489 5488 5486 5485 5483 5482 5480 5478 5476 5474 5473 5472 5472 5471 5470 5468 5468 5467 5467 5466 5466 5466 5466 5467 5468 5469 5470 5472 5473 5475 5477 5479 5480 5481 5482 5484 5486 5488 5490 5493 5495 5497 5500 5503 5505 5509 5512 5517 5521 5525 5529 5533 5537 5541 5545 5548 5551 5553 5556 5558 5560 5563 5565 5567 5569 5571 5572 5574 5576 5577 5579 5580 5580
5501 5501 5500 5499 5499 5498 5497 5496 5495 5494 5493 5491 5490 5488 5487 5485 5484 5483 5481 5479 5477 5475 5474 5473 5472 5472 5471 5470 5470 5469 5469 5469 5468 5468 5468 5468 5469 5470 5471 5472 5474 5475 5477 5478 5480 5481 5482 5484 5486 5488 5491 5493 5495 5498 5501 5503 5506 5509 5513 5517 5522 5526 5530 5534 5537 5541 5544 5547 5549 5551 5554 5556 5558 5560 5562 5564 5565 5567 5569 5570 5572 5574 5575 5576 5577
5500 5500 5499 5499 5498 5497 5497 5496 5495 5494 5492 5491 5490 5489 5487 5486 5485 5483 5482 5481 5479 5477 5476 5474 5473 5473 5472 5472 5471 5471 5471 5470 5471 5470 5470 5470 5470 5471 5472 5473 5474 5476 5477 5478 5480 5481 5483 5484 5486 5488 5491 5493 5495 5498 5501 5504 5507 5510 5514 5517 5522 5526 5529 5533 5536 5539 5542 5544 5547 5549 5551 5553 5555 5557 5558 5560 5562 5563 5565 5567 5568 5569 5571 5572 5572
5498 5498 5498 5497 5497 5497 5496 5495 5495 5494 5493 5491 5490 5489 5487 5486 5485 5484 5483 5482 5480 5479 5478 5476 5475 5474 5473 5472 5472 5472 5472 5472 5472 5472 5472 5472 5472 5473 5473 5474 5475 5477 5478 5479 5481 5482 5484 5485 5487 5489 5491 5493 5495 5498 5501 5504 5507 5510 5513 5517 5520 5524 5528 5531 5534 5537 5540 5542 5544 5546 5548 5550 5552 5553 5555 5557 5558 5560 5561 5563 5564 5565 5566 5567 5568